Starlink 11501

operational
NORAD ID: 62268 Int'l Des: 2024-237 Owner: SPXS Country: US Constellation: starlink
LEOCIRCULAR

关于 Starlink 11501

正在加载描述...

实时位置

正在加载3D地球...

即将过境

高度历史

Altitude vs Time

uPlot chart will show altitude changes over time

两行轨道根数

1 62268U 24237B 25349.95166446 .00184589 00000-0 14073-2 0 9998
2 62268 43.0027 201.2508 0002326 277.6187 82.4417 15.70890923 59836
Epoch: Dec 15, 2025 • Age: 27 hours

当前状态

高度 355.1 km
速度 7.70 km/s
星下点 2.71°N, 97.13°W
发射日期 Dec 8, 2024
运行时间 1 years
类型 internet

技术详情

分类 Payload
质量 960.00 kg
干质量 910.00 kg
总质量 960.00 kg
长度 0.30 m
直径 4.10 m
跨度 29.00 m
形状 Box + pan
制造商 SPXS
平台类型 Starlink V2MD
阶段状态 In Orbit
所有者/国家 SPXS/US

大型星座

Loading constellations...